Time,TemperatureF,DewpointF,PressureIn,WindDirection,WindDirectionDegrees,WindSpeedMPH,WindSpeedGustMPH,Humidity,HourlyPrecipIn,Conditions,Clouds,dailyrainin,SoftwareType,DateUTC
2013-06-15 00:00:00,52.0,43.0,30.33,West,269,0.0,0.0,69,0.00,,,-99.99,wx200d/1.3,2013-06-15 07:00:00,
2013-06-15 00:15:00,52.0,43.0,30.33,East,86,0.0,0.0,71,0.00,,,-99.99,wx200d/1.3,2013-06-15 07:15:00,
2013-06-15 00:30:00,52.0,43.0,30.33,West,281,2.2,0.0,72,0.00,,,-99.99,wx200d/1.3,2013-06-15 07:30:00,
2013-06-15 00:45:00,51.6,43.0,30.30,West,280,0.0,0.0,73,0.00,,,-99.99,wx200d/1.3,2013-06-15 07:45:00,
2013-06-15 01:00:00,51.6,45.0,30.33,ENE,60,0.0,0.0,74,0.00,,,-99.99,wx200d/1.3,2013-06-15 08:00:00,
2013-06-15 01:15:00,51.4,45.0,30.33,WNW,299,0.0,0.0,74,0.00,,,-99.99,wx200d/1.3,2013-06-15 08:15:00,
2013-06-15 01:30:00,51.3,45.0,30.33,WNW,286,0.0,0.0,76,0.00,,,-99.99,wx200d/1.3,2013-06-15 08:30:00,
2013-06-15 01:45:00,50.9,45.0,30.30,West,272,0.0,0.0,76,0.00,,,-99.99,wx200d/1.3,2013-06-15 08:45:00,
2013-06-15 02:00:00,51.1,45.0,30.30,East,95,0.0,0.0,77,0.00,,,-99.99,wx200d/1.3,2013-06-15 09:00:00,
2013-06-15 02:15:00,50.9,45.0,30.33,ESE,102,0.0,3.6,77,0.00,,,-99.99,wx200d/1.3,2013-06-15 09:15:00,
2013-06-15 02:30:00,50.9,45.0,30.33,West,276,0.0,0.0,78,0.00,,,-99.99,wx200d/1.3,2013-06-15 09:30:00,
2013-06-15 02:45:00,50.7,45.0,30.33,ESE,104,0.0,2.2,79,0.00,,,-99.99,wx200d/1.3,2013-06-15 09:45:00,
2013-06-15 03:00:00,50.7,45.0,30.30,WNW,285,0.0,0.0,80,0.00,,,-99.99,wx200d/1.3,2013-06-15 10:00:00,
2013-06-15 03:15:00,50.7,45.0,30.33,East,84,0.0,0.0,81,0.00,,,-99.99,wx200d/1.3,2013-06-15 10:15:00,
2013-06-15 03:30:00,50.5,45.0,30.33,East,85,0.0,0.0,81,0.00,,,-99.99,wx200d/1.3,2013-06-15 10:30:00,
2013-06-15 03:45:00,50.9,46.0,30.33,WNW,284,0.0,0.0,82,0.00,,,-99.99,wx200d/1.3,2013-06-15 10:45:00,
2013-06-15 04:00:00,50.9,46.0,30.33,WNW,290,0.0,0.0,82,0.00,,,-99.99,wx200d/1.3,2013-06-15 11:00:00,
2013-06-15 04:15:00,51.1,46.0,30.33,West,281,0.0,0.0,82,0.00,,,-99.99,wx200d/1.3,2013-06-15 11:15:00,
2013-06-15 04:30:00,51.3,46.0,30.33,WNW,283,0.0,0.0,83,0.00,,,-99.99,wx200d/1.3,2013-06-15 11:30:00,
2013-06-15 04:45:00,51.6,46.0,30.33,NE,56,0.0,0.0,82,0.00,,,-99.99,wx200d/1.3,2013-06-15 11:45:00,
2013-06-15 05:00:00,51.8,46.0,30.33,WNW,288,0.0,0.0,82,0.00,,,-99.99,wx200d/1.3,2013-06-15 12:00:00,
2013-06-15 05:15:00,51.8,46.0,30.33,ENE,65,0.0,0.0,81,0.00,,,-99.99,wx200d/1.3,2013-06-15 12:15:00,
2013-06-15 05:30:00,51.4,46.0,30.33,West,265,0.0,0.0,81,0.00,,,-99.99,wx200d/1.3,2013-06-15 12:30:00,
2013-06-15 05:45:00,51.6,46.0,30.33,East,83,0.0,0.0,80,0.00,,,-99.99,wx200d/1.3,2013-06-15 12:45:00,
2013-06-15 06:00:00,52.0,46.0,30.33,East,89,0.0,0.0,79,0.00,,,-99.99,wx200d/1.3,2013-06-15 13:00:00,
2013-06-15 06:15:00,52.3,45.0,30.36,WNW,293,0.0,0.0,77,0.00,,,-99.99,wx200d/1.3,2013-06-15 13:15:00,
2013-06-15 06:30:00,52.5,45.0,30.33,East,93,0.0,0.0,75,0.00,,,-99.99,wx200d/1.3,2013-06-15 13:30:00,
2013-06-15 06:45:00,53.1,46.0,30.36,ENE,73,0.0,0.0,74,0.00,,,-99.99,wx200d/1.3,2013-06-15 13:45:00,
2013-06-15 07:00:00,53.4,45.0,30.36,NW,321,0.0,0.0,69,0.00,,,-99.99,wx200d/1.3,2013-06-15 14:00:00,
2013-06-15 07:15:00,53.8,41.0,30.36,ENE,67,0.0,0.0,64,0.00,,,-99.99,wx200d/1.3,2013-06-15 14:15:00,
2013-06-15 07:30:00,54.5,43.0,30.36,East,84,0.0,2.2,62,0.00,,,-99.99,wx200d/1.3,2013-06-15 14:30:00,
2013-06-15 07:45:00,55.0,41.0,30.36,NNE,22,0.0,0.0,59,0.00,,,-99.99,wx200d/1.3,2013-06-15 14:45:00,
2013-06-15 08:00:00,55.6,39.0,30.36,NE,36,0.0,0.0,54,0.00,,,-99.99,wx200d/1.3,2013-06-15 15:00:00,
2013-06-15 08:15:00,56.3,39.0,30.39,West,265,0.0,0.0,52,0.00,,,-99.99,wx200d/1.3,2013-06-15 15:15:00,
2013-06-15 08:30:00,56.3,39.0,30.39,WNW,297,0.0,0.0,50,0.00,,,-99.99,wx200d/1.3,2013-06-15 15:30:00,
2013-06-15 08:45:00,56.7,37.0,30.39,WNW,284,0.0,0.0,49,0.00,,,-99.99,wx200d/1.3,2013-06-15 15:45:00,
2013-06-15 09:00:00,57.0,37.0,30.39,NE,34,0.0,0.0,48,0.00,,,-99.99,wx200d/1.3,2013-06-15 16:00:00,
2013-06-15 09:15:00,57.4,37.0,30.39,WNW,293,0.0,0.0,46,0.00,,,-99.99,wx200d/1.3,2013-06-15 16:15:00,
2013-06-15 09:30:00,57.7,36.0,30.39,West,278,0.0,0.0,45,0.00,,,-99.99,wx200d/1.3,2013-06-15 16:30:00,
2013-06-15 09:45:00,58.5,37.0,30.42,ENE,75,0.0,0.0,44,0.00,,,-99.99,wx200d/1.3,2013-06-15 16:45:00,
2013-06-15 10:15:00,60.4,34.0,30.42,SE,138,0.0,0.0,37,0.00,,,-99.99,wx200d/1.3,2013-06-15 17:15:00,
2013-06-15 10:30:00,62.4,34.0,30.42,WNW,290,0.0,0.0,35,0.00,,,-99.99,wx200d/1.3,2013-06-15 17:30:00,
2013-06-15 10:45:00,63.9,34.0,30.42,East,85,2.7,0.0,32,0.00,,,-99.99,wx200d/1.3,2013-06-15 17:45:00,
2013-06-15 11:00:00,64.0,34.0,30.42,NE,50,0.0,0.0,32,0.00,,,-99.99,wx200d/1.3,2013-06-15 18:00:00,
2013-06-15 11:15:00,64.4,32.0,30.45,West,264,0.0,0.0,30,0.00,,,-99.99,wx200d/1.3,2013-06-15 18:15:00,
2013-06-15 11:30:00,65.1,32.0,30.42,East,82,0.0,2.7,28,0.00,,,-99.99,wx200d/1.3,2013-06-15 18:30:00,
2013-06-15 11:45:00,65.3,32.0,30.42,ENE,77,0.0,2.7,27,0.00,,,-99.99,wx200d/1.3,2013-06-15 18:45:00,
2013-06-15 12:00:00,65.8,32.0,30.42,SW,230,2.2,3.1,27,0.00,,,-99.99,wx200d/1.3,2013-06-15 19:00:00,
2013-06-15 12:15:00,66.0,32.0,30.42,NNW,342,0.0,0.0,26,0.00,,,-99.99,wx200d/1.3,2013-06-15 19:15:00,
2013-06-15 12:30:00,66.2,32.0,30.45,West,274,0.0,0.0,26,0.00,,,-99.99,wx200d/1.3,2013-06-15 19:30:00,
2013-06-15 12:45:00,65.5,32.0,30.45,West,271,0.0,0.0,26,0.00,,,-99.99,wx200d/1.3,2013-06-15 19:45:00,
2013-06-15 13:00:00,64.6,32.0,30.42,ENE,70,0.0,0.0,27,0.00,,,-99.99,wx200d/1.3,2013-06-15 20:00:00,
2013-06-15 13:15:00,64.0,32.0,30.45,ENE,77,0.0,0.0,28,0.00,,,-99.99,wx200d/1.3,2013-06-15 20:15:00,
2013-06-15 13:30:00,64.0,32.0,30.42,SSE,166,0.0,0.0,28,0.00,,,-99.99,wx200d/1.3,2013-06-15 20:30:00,
2013-06-15 13:45:00,63.7,32.0,30.42,NNE,31,0.0,0.0,29,0.00,,,-99.99,wx200d/1.3,2013-06-15 20:45:00,
2013-06-15 14:00:00,63.9,32.0,30.45,ENE,74,2.7,6.3,28,0.00,,,-99.99,wx200d/1.3,2013-06-15 21:00:00,
2013-06-15 14:15:00,64.2,32.0,30.42,East,82,0.0,5.4,28,0.00,,,-99.99,wx200d/1.3,2013-06-15 21:15:00,
2013-06-15 14:30:00,64.0,32.0,30.42,NE,49,0.0,0.0,29,0.00,,,-99.99,wx200d/1.3,2013-06-15 21:30:00,
2013-06-15 14:45:00,66.6,32.0,30.42,WNW,285,2.7,2.7,26,0.00,,,-99.99,wx200d/1.3,2013-06-15 21:45:00,
2013-06-15 15:00:00,68.9,32.0,30.42,WNW,292,0.0,3.6,24,0.00,,,-99.99,wx200d/1.3,2013-06-15 22:00:00,
2013-06-15 15:15:00,68.5,32.0,30.42,East,80,2.7,0.0,24,0.00,,,-99.99,wx200d/1.3,2013-06-15 22:15:00,
2013-06-15 15:30:00,66.4,32.0,30.39,ENE,68,3.1,3.1,25,0.00,,,-99.99,wx200d/1.3,2013-06-15 22:30:00,
2013-06-15 15:45:00,66.2,32.0,30.42,ENE,77,3.1,4.0,26,0.00,,,-99.99,wx200d/1.3,2013-06-15 22:45:00,
2013-06-15 16:00:00,67.3,32.0,30.42,East,89,2.2,3.1,25,0.00,,,-99.99,wx200d/1.3,2013-06-15 23:00:00,
2013-06-15 16:15:00,66.4,32.0,30.42,West,278,3.1,3.1,26,0.00,,,-99.99,wx200d/1.3,2013-06-15 23:15:00,
2013-06-15 16:30:00,65.5,32.0,30.42,SSW,207,3.6,3.6,26,0.00,,,-99.99,wx200d/1.3,2013-06-15 23:30:00,
2013-06-15 16:45:00,63.7,32.0,30.42,West,276,3.1,3.1,30,0.00,,,-99.99,wx200d/1.3,2013-06-15 23:45:00,
2013-06-15 17:00:00,64.2,32.0,30.42,West,266,3.1,3.1,29,0.00,,,-99.99,wx200d/1.3,2013-06-16 00:00:00,
2013-06-15 17:15:00,62.1,32.0,30.42,ESE,111,4.0,4.0,32,0.00,,,-99.99,wx200d/1.3,2013-06-16 00:15:00,
2013-06-15 17:30:00,61.0,32.0,30.42,West,276,4.0,4.0,34,0.00,,,-99.99,wx200d/1.3,2013-06-16 00:30:00,
2013-06-15 17:45:00,61.3,32.0,30.42,WNW,294,3.1,4.9,34,0.00,,,-99.99,wx200d/1.3,2013-06-16 00:45:00,
2013-06-15 18:00:00,60.6,34.0,30.42,East,99,2.7,3.1,35,0.00,,,-99.99,wx200d/1.3,2013-06-16 01:00:00,
2013-06-15 18:15:00,61.0,34.0,30.39,NE,46,0.0,2.2,35,0.00,,,-99.99,wx200d/1.3,2013-06-16 01:15:00,
2013-06-15 18:30:00,62.4,34.0,30.42,West,267,2.2,2.7,34,0.00,,,-99.99,wx200d/1.3,2013-06-16 01:30:00,
2013-06-15 18:45:00,59.9,34.0,30.42,WSW,246,3.1,3.1,35,0.00,,,-99.99,wx200d/1.3,2013-06-16 01:45:00,
2013-06-15 19:00:00,58.5,34.0,30.45,West,259,2.2,4.9,38,0.00,,,-99.99,wx200d/1.3,2013-06-16 02:00:00,
2013-06-15 19:15:00,57.6,36.0,30.42,West,277,0.0,4.0,43,0.00,,,-99.99,wx200d/1.3,2013-06-16 02:15:00,
2013-06-15 19:30:00,57.0,37.0,30.42,East,83,2.2,3.1,46,0.00,,,-99.99,wx200d/1.3,2013-06-16 02:30:00,
2013-06-15 19:45:00,56.3,37.0,30.45,ESE,102,0.0,2.7,49,0.00,,,-99.99,wx200d/1.3,2013-06-16 02:45:00,
2013-06-15 20:00:00,55.4,39.0,30.42,NW,312,0.0,0.0,53,0.00,,,-99.99,wx200d/1.3,2013-06-16 03:00:00,
2013-06-15 20:15:00,54.7,41.0,30.42,ESE,115,2.2,0.0,57,0.00,,,-99.99,wx200d/1.3,2013-06-16 03:15:00,
2013-06-15 20:30:00,54.3,39.0,30.42,SSW,209,0.0,0.0,60,0.00,,,-99.99,wx200d/1.3,2013-06-16 03:30:00,
2013-06-15 20:45:00,54.0,41.0,30.45,WNW,284,0.0,0.0,62,0.00,,,-99.99,wx200d/1.3,2013-06-16 03:45:00,
2013-06-15 21:00:00,54.0,41.0,30.42,ESE,102,2.2,2.2,63,0.00,,,-99.99,wx200d/1.3,2013-06-16 04:00:00,
2013-06-15 21:15:00,54.0,41.0,30.45,WSW,254,0.0,0.0,64,0.00,,,-99.99,wx200d/1.3,2013-06-16 04:15:00,
2013-06-15 21:30:00,53.6,43.0,30.45,East,95,0.0,2.7,65,0.00,,,-99.99,wx200d/1.3,2013-06-16 04:30:00,
2013-06-15 21:45:00,53.4,43.0,30.47,WNW,291,0.0,0.0,66,0.00,,,-99.99,wx200d/1.3,2013-06-16 04:45:00,
2013-06-15 22:00:00,53.4,43.0,30.45,West,279,0.0,2.7,67,0.00,,,-99.99,wx200d/1.3,2013-06-16 05:00:00,
2013-06-15 22:15:00,53.2,43.0,30.47,East,81,0.0,0.0,68,0.00,,,-99.99,wx200d/1.3,2013-06-16 05:15:00,
2013-06-15 22:30:00,53.2,45.0,30.47,West,277,0.0,0.0,69,0.00,,,-99.99,wx200d/1.3,2013-06-16 05:30:00,
2013-06-15 22:45:00,53.6,43.0,30.47,West,270,0.0,0.0,68,0.00,,,-99.99,wx200d/1.3,2013-06-16 05:45:00,
2013-06-15 23:00:00,53.6,43.0,30.47,West,265,2.2,0.0,67,0.00,,,-99.99,wx200d/1.3,2013-06-16 06:00:00,
2013-06-15 23:15:00,53.6,43.0,30.47,West,268,0.0,0.0,66,0.00,,,-99.99,wx200d/1.3,2013-06-16 06:15:00,
2013-06-15 23:30:00,53.6,43.0,30.47,WNW,284,0.0,0.0,66,0.00,,,-99.99,wx200d/1.3,2013-06-16 06:30:00,
2013-06-15 23:45:00,53.4,43.0,30.47,West,276,0.0,0.0,67,0.00,,,-99.99,wx200d/1.3,2013-06-16 06:45:00,